Вернуться в каталог

BREEZE-M R/B

АктивенHEO
NORAD 37827·ROCKET BODY·🇷🇺 Russia

Запущен Sep 29, 2011 с Baikonur Cosmodrome

Loading…

Ближайшие Пролёты (ближайшие 24 часа)

TLE

СвежийSource: Space-Track

Эпоха: Sep 14, 2026, 09:31 UTC

1 37827U 11054B   26257.39668914 -.00000166  00000-0  00000-0 0  9990
2 37827  17.0356 197.0503 5586334  67.7458  61.4437  2.07657997112244

Отслеживайте BREEZE-M R/B в реальном времени с AllMySat

Download on the App Store